Weather History for Hayward, WI

Change the Weather History Date:

Friday, April 4, 2014

  Actual Average Record
Temperature  
Mean Temperature 25 °F -  
Max Temperature 36 °F 49 °F 68 °F (2005)
Min Temperature 15 °F 20 °F 15 °F (2014)
Degree Days  
Heating Degree Days 40    
Moisture  
Dew Point 24 °F    
Average Humidity 86    
Maximum Humidity 92    
Minimum Humidity 67    
Precipitation  
Precipitation 0.52 in - - ()
Sea Level Pressure  
Sea Level Pressure 29.79 in    
Wind  
Wind Speed 9 mph (NNE)    
Max Wind Speed 14 mph    
Max Gust Speed 23 mph    
Visibility 2 miles    
Events Fog , Snow    
Averages and records for this station are not official NWS values.
T = Trace of Precipitation, MM = Missing Value Source: NWS Daily Summary

Daily Weather History Graph

Daily Weather History Graph

Search for Another Location

Airport:

Trip Planner

Search our weather history database for the weather conditions in past years. The results will help you decide how hot, cold, wet, or windy it might be!

Date:

Astronomy

Apr. 04, 2014 Rise Set
Actual Time 6:39 AM CDT 7:38 PM CDT
Civil Twilight 6:09 AM CDT 8:08 PM CDT
Nautical Twilight 5:33 AM CDT 8:45 PM CDT
Astronomical Twilight 4:54 AM CDT 9:23 PM CDT
Moon 9:45 AM CDT (4/4) 12:08 AM CDT (4/4)
Length of Visible Light 13h 59m
Length of Day
12h 58m
Waxing Crescent, 25% of the Moon is Illuminated
Apr 4
Waxing Crescent
Apr 7
First Quarter
Apr 15
Full
Apr 22
Last Quarter
Apr 29
New

Hourly Weather History & Observations

Time (CDT) Temp. Windchill Dew Point Humidity Pressure Visibility Wind Dir Wind Speed Gust Speed Precip Events Conditions
12:18 AM 28.0 °F 18.6 °F 25.0 °F 88% 29.79 in 0.8 mi NNE 10.4 mph 18.4 mph 0.02 in Snow Light Snow
12:27 AM 28.0 °F 17.5 °F 25.0 °F 88% 29.79 in 0.5 mi NNE 12.7 mph 18.4 mph 0.04 in Fog , Snow Snow
12:34 AM 28.0 °F 17.5 °F 25.0 °F 88% 29.78 in 0.2 mi NE 12.7 mph 17.3 mph 0.05 in Fog , Snow Heavy Snow
12:53 AM 28.0 °F 17.5 °F 25.0 °F 88% 29.82 in 0.8 mi NE 12.7 mph 21.9 mph 0.07 in Snow Light Snow
1:00 AM 28.0 °F 17.5 °F 25.0 °F 88% 29.77 in 1.0 mi NE 12.7 mph - 0.00 in Snow Light Snow
1:15 AM 28.0 °F 19.3 °F 25.0 °F 88% 29.77 in 0.8 mi NE 9.2 mph - 0.02 in Snow Light Snow
1:28 AM 27.0 °F 16.1 °F 25.0 °F 92% 29.76 in 0.5 mi NE 12.7 mph - 0.04 in Fog , Snow Snow
1:41 AM 27.0 °F 16.7 °F 25.0 °F 92% 29.75 in 1.0 mi NNE 11.5 mph 19.6 mph 0.05 in Snow Light Snow
1:53 AM 27.0 °F 16.1 °F 25.0 °F 92% 29.79 in 1.2 mi NE 12.7 mph - 0.05 in Snow Light Snow
2:02 AM 28.0 °F 17.5 °F 25.0 °F 88% 29.74 in 1.2 mi NE 12.7 mph 20.7 mph 0.00 in Snow Light Snow
2:09 AM 27.0 °F 17.3 °F 25.0 °F 92% 29.74 in 1.0 mi NE 10.4 mph - 0.01 in Snow Light Snow
2:16 AM 27.0 °F 16.7 °F 25.0 °F 92% 29.75 in 0.5 mi NE 11.5 mph 17.3 mph 0.02 in Fog , Snow Snow
2:34 AM 27.0 °F 18.0 °F 25.0 °F 92% 29.74 in 0.8 mi NNE 9.2 mph - 0.04 in Snow Light Snow
2:41 AM 27.0 °F 18.0 °F 25.0 °F 92% 29.74 in 1.0 mi NNE 9.2 mph - 0.05 in Snow Light Snow
2:53 AM 27.0 °F 18.0 °F 25.0 °F 92% 29.77 in 0.8 mi NNE 9.2 mph - 0.06 in Snow Light Snow
3:10 AM 27.0 °F 15.6 °F 24.1 °F 89% 29.70 in 0.5 mi NE 13.8 mph - 0.02 in Fog , Snow Snow
3:34 AM 27.0 °F 17.3 °F 24.1 °F 89% 29.70 in 0.5 mi NE 10.4 mph 18.4 mph 0.07 in Fog , Snow Snow
3:45 AM 27.0 °F 16.7 °F 24.1 °F 89% 29.69 in 0.5 mi NE 11.5 mph - 0.08 in Fog , Snow Snow
3:53 AM 27.0 °F 16.7 °F 24.1 °F 89% 29.73 in 0.8 mi NNE 11.5 mph - 0.09 in Snow Light Snow
4:07 AM 27.0 °F 19.5 °F 24.1 °F 89% 29.68 in 1.0 mi NNE 6.9 mph - 0.01 in Snow Light Snow
4:12 AM 27.0 °F 18.7 °F 24.1 °F 89% 29.68 in 1.5 mi NNE 8.1 mph - 0.01 in Snow Light Snow
4:21 AM 27.0 °F 18.0 °F 24.1 °F 89% 29.68 in 3.0 mi NNE 9.2 mph 17.3 mph 0.01 in Snow Light Snow
4:31 AM 27.0 °F 18.7 °F 24.1 °F 89% 29.68 in 5.0 mi NNE 8.1 mph 16.1 mph 0.01 in Snow Light Snow
4:53 AM 27.0 °F 17.3 °F 24.1 °F 89% 29.72 in 10.0 mi NNE 10.4 mph 17.3 mph 0.01 in   Overcast
5:18 AM 28.0 °F 19.3 °F 24.1 °F 85% 29.68 in 9.0 mi NNE 9.2 mph - N/A   Overcast
5:35 AM 28.0 °F 20.8 °F 24.1 °F 85% 29.67 in 2.0 mi Variable 6.9 mph - 0.00 in Snow Light Snow
5:40 AM 28.0 °F 20.8 °F 24.1 °F 85% 29.68 in 1.8 mi NNE 6.9 mph - 0.01 in Snow Light Snow
5:46 AM 28.0 °F 18.6 °F 25.0 °F 88% 29.67 in 1.8 mi NNE 10.4 mph - 0.01 in Snow Light Snow
5:53 AM 28.0 °F 20.0 °F 25.0 °F 88% 29.71 in 1.5 mi NNE 8.1 mph - 0.01 in Snow Light Snow
6:15 AM 28.0 °F 20.0 °F 25.0 °F 88% 29.67 in 1.5 mi NNE 8.1 mph - 0.00 in Snow Light Snow
6:29 AM 28.0 °F 18.6 °F 25.0 °F 88% 29.67 in 2.5 mi NNE 10.4 mph - 0.01 in Snow Light Snow
6:36 AM 28.0 °F 19.3 °F 25.0 °F 88% 29.67 in 3.0 mi NNE 9.2 mph 18.4 mph 0.01 in Snow Light Snow
6:45 AM 28.0 °F 17.0 °F 25.0 °F 88% 29.67 in 1.8 mi NNE 13.8 mph 19.6 mph 0.01 in Snow Light Snow
6:53 AM 28.0 °F 17.5 °F 25.0 °F 88% 29.73 in 0.8 mi NNE 12.7 mph 21.9 mph 0.02 in Snow Light Snow
7:09 AM 28.0 °F 19.3 °F 25.0 °F 88% 29.68 in 0.2 mi NNE 9.2 mph 18.4 mph 0.03 in Fog , Snow Heavy Snow
7:53 AM 28.0 °F 19.3 °F 25.0 °F 88% 29.73 in 0.2 mi NNE 9.2 mph 21.9 mph 0.10 in Fog , Snow Heavy Snow
8:40 AM 28.0 °F 20.8 °F 25.0 °F 88% 29.67 in 0.5 mi Variable 6.9 mph 23.0 mph 0.06 in Fog , Snow Snow
8:53 AM 28.0 °F 19.3 °F 25.0 °F 88% 29.72 in 1.0 mi North 9.2 mph 17.3 mph 0.06 in Snow Light Snow
8:57 AM 28.9 °F 21.1 °F 25.0 °F 85% 29.66 in 1.2 mi North 8.1 mph 17.3 mph 0.00 in Snow Light Snow
9:15 AM 28.9 °F 21.9 °F 25.0 °F 85% 29.67 in 2.5 mi Variable 6.9 mph 20.7 mph 0.00 in Snow Light Snow
9:27 AM 28.9 °F 20.4 °F 25.0 °F 85% 29.67 in 4.0 mi North 9.2 mph - 0.00 in Snow Light Snow
9:53 AM 28.9 °F 21.1 °F 24.1 °F 82% 29.73 in 5.0 mi North 8.1 mph - 0.00 in Snow Light Snow
10:46 AM 28.9 °F 21.9 °F 24.1 °F 82% 29.71 in 2.5 mi Variable 6.9 mph 19.6 mph 0.00 in Snow Light Snow
10:53 AM 28.9 °F 19.8 °F 24.1 °F 82% 29.76 in 2.0 mi North 10.4 mph 18.4 mph 0.00 in Snow Light Snow
11:28 AM 30.0 °F 25.2 °F 25.0 °F 82% 29.72 in 1.5 mi Variable 4.6 mph - 0.01 in Snow Light Snow
11:53 AM 30.0 °F 24.1 °F 26.1 °F 85% 29.78 in 1.2 mi Variable 5.8 mph - 0.01 in Snow Light Snow
12:05 PM 30.0 °F 25.2 °F 26.1 °F 85% 29.73 in 0.8 mi Variable 4.6 mph - 0.01 in Snow Light Snow
12:24 PM 30.9 °F - 27.0 °F 85% 29.74 in 0.8 mi North - - 0.01 in Snow Light Snow
12:53 PM 30.9 °F 23.5 °F 26.1 °F 82% 29.80 in 0.8 mi North 8.1 mph - 0.02 in Snow Light Snow
1:02 PM 30.9 °F 26.2 °F 26.1 °F 82% 29.75 in 1.0 mi Variable 4.6 mph - 0.01 in Snow Light Snow
1:39 PM 30.9 °F 24.3 °F 26.1 °F 82% 29.77 in 0.8 mi NNW 6.9 mph - 0.01 in Snow Light Snow
1:53 PM 30.9 °F 26.2 °F 27.0 °F 85% 29.83 in 0.8 mi Variable 4.6 mph - 0.01 in Snow Light Snow
2:06 PM 32.0 °F 27.5 °F 27.0 °F 82% 29.78 in 1.0 mi Variable 4.6 mph - 0.00 in Snow Light Snow
2:09 PM 32.0 °F 26.4 °F 27.0 °F 82% 29.78 in 1.2 mi Variable 5.8 mph - 0.00 in Snow Light Snow
2:24 PM 32.0 °F 28.7 °F 28.0 °F 85% 29.78 in 1.5 mi Variable 3.5 mph - 0.00 in Snow Light Snow
2:37 PM 32.0 °F 25.6 °F 27.0 °F 82% 29.78 in 2.0 mi Variable 6.9 mph - 0.00 in Snow Light Snow
2:53 PM 33.1 °F 28.7 °F 28.0 °F 82% 29.83 in 3.0 mi Variable 4.6 mph - 0.00 in Snow Light Snow
3:24 PM 34.0 °F 26.0 °F 28.9 °F 82% 29.79 in 3.0 mi NNW 10.4 mph 18.4 mph 0.01 in Snow Light Snow
3:53 PM 34.0 °F 27.2 °F 28.0 °F 79% 29.85 in 10.0 mi NNW 8.1 mph - 0.01 in   Overcast
4:37 PM 35.1 °F 29.3 °F 27.0 °F 72% 29.82 in 10.0 mi Variable 6.9 mph 17.3 mph 0.00 in   Overcast
4:53 PM 35.1 °F 30.1 °F 27.0 °F 72% 29.88 in 9.0 mi Variable 5.8 mph 19.6 mph 0.00 in Snow Light Snow
5:53 PM 35.1 °F - 26.1 °F 70% 29.91 in 10.0 mi North - - 0.00 in   Overcast
6:53 PM 35.1 °F 29.3 °F 25.0 °F 67% 29.93 in 10.0 mi Variable 6.9 mph - N/A   Mostly Cloudy
7:53 PM 33.1 °F 30.0 °F 24.1 °F 70% 29.96 in 10.0 mi NW 3.5 mph - N/A   Clear
8:53 PM 28.0 °F - 25.0 °F 88% 29.99 in 10.0 mi Calm Calm - N/A   Clear
9:53 PM 25.0 °F - 21.0 °F 85% 30.00 in 2.0 mi Calm Calm - N/A   Clear
10:00 PM 24.1 °F - 19.9 °F 84% 29.95 in 1.2 mi Calm Calm - N/A   Clear
10:12 PM 24.1 °F - 19.9 °F 84% 29.95 in 0.8 mi Calm Calm - N/A   Clear
10:46 PM 19.9 °F - 17.1 °F 89% 29.96 in 1.5 mi Calm Calm - N/A   Clear
10:50 PM 21.2 °F - 17.6 °F 86% 29.96 in 3.0 mi Calm Calm - N/A   Clear
10:53 PM 21.0 °F - 17.1 °F 85% 30.02 in 4.0 mi Calm Calm - N/A   Clear
11:03 PM 19.9 °F - 16.0 °F 85% 29.97 in 1.5 mi Calm Calm - N/A   Clear
11:05 PM 19.9 °F - 16.0 °F 85% 29.97 in 0.8 mi Calm Calm - N/A   Clear
11:36 PM 18.0 °F - 15.1 °F 88% 29.97 in 1.2 mi Calm Calm - N/A   Clear
11:42 PM 18.0 °F - 15.1 °F 88% 29.97 in 3.0 mi Calm Calm - N/A   Clear
11:47 PM 15.8 °F - 12.2 °F 86% 29.97 in 1.5 mi Calm Calm - N/A   Clear
11:50 PM 15.8 °F - 12.2 °F 86% 29.97 in 0.8 mi Calm Calm - N/A   Clear
11:53 PM 15.1 °F - 12.9 °F 91% 30.04 in 0.5 mi Calm Calm - N/A Fog Light Freezing Fog